• In Österreich
  • Länderverzeichnis
  • Für 7 Tage
  • Wassertemperatur
  • Satellitenkarten
  • Wetterkarte
  • News
  • Widgets
  • user-avatar
    Anmelden

    Stündliche Wetter Goryany

    Heute, 20 September, Donnerstag

    Zeit Temperatur Niederschläge Wind Luftdruck Luftfeuchtigkeit
    00:00 +17°C° 0 mm 2 m/S 750 mmHg 95%
    01:00 +16°C° 0 mm 2 m/S 750 mmHg 96%
    02:00 +16°C° 0 mm 2 m/S 750 mmHg 96%
    03:00 +16°C° 0 mm 2 m/S 750 mmHg 97%
    04:00 +15°C° 0 mm 2 m/S 750 mmHg 97%
    05:00 +15°C° 0 mm 2 m/S 751 mmHg 97%
    06:00 +15°C° 0 mm 2 m/S 751 mmHg 93%
    07:00 +16°C° 0 mm 2 m/S 751 mmHg 89%
    08:00 +17°C° 0 mm 2 m/S 751 mmHg 83%
    09:00 +18°C° 0 mm 2 m/S 751 mmHg 75%
    10:00 +20°C° 0 mm 2 m/S 751 mmHg 66%
    11:00 +22°C° 0 mm 3 m/S 752 mmHg 57%
    12:00 +24°C° 0 mm 3 m/S 751 mmHg 54%
    13:00 +25°C° 0 mm 3 m/S 751 mmHg 51%
    14:00 +25°C° 0 mm 3 m/S 751 mmHg 47%
    15:00 +25°C° 0 mm 3 m/S 751 mmHg 53%
    16:00 +24°C° 0 mm 2 m/S 751 mmHg 58%
    17:00 +23°C° 0 mm 2 m/S 751 mmHg 64%
    18:00 +21°C° 0 mm 2 m/S 751 mmHg 70%
    19:00 +20°C° 0 mm 1 m/S 751 mmHg 76%
    20:00 +19°C° 0 mm 1 m/S 751 mmHg 83%
    21:00 +18°C° 0 mm 1 m/S 751 mmHg 85%
    22:00 +17°C° 0 mm 2 m/S 751 mmHg 88%
    23:00 +17°C° 0 mm 2 m/S 751 mmHg 91%

    Morgen, 21 September, Freitag

    Zeit Temperatur Niederschläge Wind Luftdruck Luftfeuchtigkeit
    00:00 +17°C° 0 mm 2 m/S 751 mmHg 92%
    01:00 +17°C° 0 mm 2 m/S 751 mmHg 92%
    02:00 +16°C° 0 mm 2 m/S 751 mmHg 93%
    03:00 +16°C° 0 mm 2 m/S 751 mmHg 93%
    04:00 +16°C° 0 mm 2 m/S 751 mmHg 94%
    05:00 +16°C° 0 mm 2 m/S 751 mmHg 94%
    06:00 +17°C° 0 mm 2 m/S 751 mmHg 89%
    07:00 +18°C° 0 mm 3 m/S 751 mmHg 85%
    08:00 +20°C° 0 mm 3 m/S 751 mmHg 80%
    09:00 +21°C° 0 mm 3 m/S 751 mmHg 74%
    10:00 +24°C° 0 mm 3 m/S 751 mmHg 67%
    11:00 +26°C° 0 mm 4 m/S 751 mmHg 60%
    12:00 +26°C° 0 mm 4 m/S 751 mmHg 57%
    13:00 +27°C° 0 mm 4 m/S 751 mmHg 54%
    14:00 +28°C° 0 mm 4 m/S 751 mmHg 52%
    15:00 +27°C° 0 mm 4 m/S 750 mmHg 55%
    16:00 +26°C° 0 mm 3 m/S 750 mmHg 59%
    17:00 +25°C° 0 mm 3 m/S 749 mmHg 62%
    18:00 +22°C° 0 mm 3 m/S 749 mmHg 66%
    19:00 +20°C° 0 mm 3 m/S 749 mmHg 70%
    20:00 +19°C° 0 mm 3 m/S 749 mmHg 74%
    21:00 +19°C° 0 mm 3 m/S 748 mmHg 73%
    22:00 +19°C° 0 mm 4 m/S 748 mmHg 71%
    23:00 +19°C° 0 mm 4 m/S 748 mmHg 70%

    übermorgen, 22 September, Samstag

    Zeit Temperatur Niederschläge Wind Luftdruck Luftfeuchtigkeit
    00:00 +19°C° 0 mm 4 m/S 747 mmHg 69%
    01:00 +19°C° 0 mm 5 m/S 747 mmHg 69%
    02:00 +17°C° 0 mm 5 m/S 746 mmHg 68%
    03:00 +17°C° 0 mm 5 m/S 746 mmHg 68%
    04:00 +17°C° 0 mm 5 m/S 745 mmHg 67%
    05:00 +16°C° 0 mm 5 m/S 744 mmHg 66%
    06:00 +17°C° 0 mm 6 m/S 744 mmHg 65%
    07:00 +17°C° 0 mm 6 m/S 744 mmHg 65%
    08:00 +19°C° 0 mm 6 m/S 744 mmHg 64%
    09:00 +17°C° 0.2 mm 6 m/S 745 mmHg 68%
    10:00 +16°C° 0.2 mm 5 m/S 745 mmHg 72%
    11:00 +15°C° 0.2 mm 5 m/S 746 mmHg 76%
    12:00 +14°C° 0.3 mm 4 m/S 746 mmHg 79%
    13:00 +13°C° 0.3 mm 4 m/S 746 mmHg 81%
    14:00 +12°C° 0.3 mm 3 m/S 747 mmHg 84%
    15:00 +12°C° 0.3 mm 3 m/S 747 mmHg 84%
    16:00 +12°C° 0.3 mm 3 m/S 747 mmHg 85%
    17:00 +12°C° 0.3 mm 3 m/S 747 mmHg 85%
    18:00 +11°C° 0.1 mm 3 m/S 748 mmHg 85%
    19:00 +11°C° 0.1 mm 3 m/S 748 mmHg 85%
    20:00 +11°C° 0.1 mm 3 m/S 748 mmHg 84%
    21:00 +10°C° 0 mm 3 m/S 748 mmHg 86%
    22:00 +10°C° 0 mm 3 m/S 748 mmHg 87%
    23:00 +9°C° 0 mm 3 m/S 748 mmHg 88%

    23 September, Sonntag

    Zeit Temperatur Niederschläge Wind Luftdruck Luftfeuchtigkeit
    00:00 +9°C° 0 mm 2 m/S 747 mmHg 90%
    01:00 +8°C° 0 mm 2 m/S 747 mmHg 91%
    02:00 +8°C° 0 mm 2 m/S 747 mmHg 93%
    03:00 +7°C° 0 mm 2 m/S 747 mmHg 93%
    04:00 +7°C° 0 mm 3 m/S 747 mmHg 93%
    05:00 +7°C° 0 mm 3 m/S 746 mmHg 93%
    06:00 +8°C° 0 mm 3 m/S 746 mmHg 89%
    07:00 +8°C° 0 mm 4 m/S 746 mmHg 86%
    08:00 +8°C° 0 mm 4 m/S 746 mmHg 82%
    09:00 +10°C° 0 mm 5 m/S 746 mmHg 77%
    10:00 +12°C° 0 mm 5 m/S 745 mmHg 72%
    11:00 +13°C° 0 mm 6 m/S 745 mmHg 67%
    12:00 +13°C° 0.1 mm 6 m/S 745 mmHg 66%
    13:00 +13°C° 0.1 mm 6 m/S 745 mmHg 66%
    14:00 +13°C° 0.1 mm 6 m/S 745 mmHg 66%
    15:00 +13°C° 0.1 mm 5 m/S 745 mmHg 67%
    16:00 +13°C° 0.1 mm 4 m/S 745 mmHg 68%
    17:00 +12°C° 0.1 mm 4 m/S 745 mmHg 69%
    18:00 +11°C° 0 mm 3 m/S 745 mmHg 74%
    19:00 +10°C° 0 mm 3 m/S 745 mmHg 78%
    20:00 +9°C° 0 mm 3 m/S 745 mmHg 82%
    21:00 +9°C° 0 mm 3 m/S 745 mmHg 83%
    22:00 +9°C° 0 mm 3 m/S 744 mmHg 83%
    23:00 +8°C° 0 mm 3 m/S 744 mmHg 84%

    24 September, Montag

    Zeit Temperatur Niederschläge Wind Luftdruck Luftfeuchtigkeit
    00:00 +9°C° 0 mm 3 m/S 743 mmHg 82%
    01:00 +9°C° 0 mm 3 m/S 743 mmHg 81%
    02:00 +9°C° 0 mm 3 m/S 742 mmHg 80%
    03:00 +9°C° 0.7 mm 3 m/S 741 mmHg 83%
    04:00 +8°C° 0.7 mm 4 m/S 740 mmHg 87%
    05:00 +8°C° 0.7 mm 4 m/S 739 mmHg 91%
    06:00 +8°C° 2 mm 5 m/S 738 mmHg 91%
    07:00 +8°C° 2 mm 5 m/S 736 mmHg 92%
    08:00 +8°C° 2 mm 6 m/S 735 mmHg 92%
    09:00 +9°C° 2 mm 6 m/S 734 mmHg 92%
    10:00 +9°C° 2 mm 6 m/S 732 mmHg 92%
    11:00 +10°C° 2 mm 6 m/S 731 mmHg 92%
    12:00 +11°C° 2 mm 6 m/S 730 mmHg 92%
    13:00 +12°C° 2 mm 5 m/S 729 mmHg 93%
    14:00 +13°C° 2 mm 5 m/S 728 mmHg 93%
    15:00 +11°C° 1.6 mm 6 m/S 728 mmHg 91%
    16:00 +10°C° 1.6 mm 7 m/S 729 mmHg 90%
    17:00 +9°C° 1.6 mm 8 m/S 729 mmHg 89%
    18:00 +7°C° 0.6 mm 9 m/S 731 mmHg 87%
    19:00 +6°C° 0.6 mm 9 m/S 732 mmHg 86%
    20:00 +5°C° 0.6 mm 10 m/S 734 mmHg 85%
    21:00 +5°C° 0.1 mm 9 m/S 735 mmHg 83%
    22:00 +5°C° 0.1 mm 9 m/S 737 mmHg 82%
    23:00 +5°C° 0.1 mm 8 m/S 738 mmHg 81%

    25 September, Dienstag

    Zeit Temperatur Niederschläge Wind Luftdruck Luftfeuchtigkeit
    00:00 +4°C° 0 mm 8 m/S 739 mmHg 80%
    01:00 +4°C° 0 mm 7 m/S 740 mmHg 78%
    02:00 +4°C° 0 mm 7 m/S 742 mmHg 77%
    03:00 +3°C° 0 mm 7 m/S 742 mmHg 76%
    04:00 +3°C° 0 mm 7 m/S 743 mmHg 76%
    05:00 +3°C° 0 mm 7 m/S 744 mmHg 76%
    06:00 +3°C° 0 mm 7 m/S 745 mmHg 72%
    07:00 +4°C° 0 mm 7 m/S 745 mmHg 69%
    08:00 +4°C° 0 mm 7 m/S 746 mmHg 65%
    09:00 +5°C° 0 mm 7 m/S 747 mmHg 60%
    10:00 +6°C° 0 mm 7 m/S 747 mmHg 54%
    11:00 +8°C° 0 mm 7 m/S 748 mmHg 48%
    12:00 +9°C° 0.1 mm 7 m/S 748 mmHg 49%
    13:00 +9°C° 0.1 mm 6 m/S 748 mmHg 50%
    14:00 +10°C° 0.1 mm 6 m/S 748 mmHg 52%
    15:00 +9°C° 0 mm 5 m/S 749 mmHg 56%
    16:00 +10°C° 0 mm 4 m/S 749 mmHg 60%
    17:00 +9°C° 0 mm 3 m/S 749 mmHg 64%
    18:00 +8°C° 0 mm 3 m/S 749 mmHg 69%
    19:00 +7°C° 0 mm 2 m/S 750 mmHg 74%
    20:00 +6°C° 0 mm 2 m/S 750 mmHg 79%
    21:00 +5°C° 0 mm 2 m/S 750 mmHg 81%
    22:00 +5°C° 0 mm 2 m/S 751 mmHg 84%
    23:00 +5°C° 0 mm 2 m/S 751 mmHg 87%
    Mehr zeigen